SKYSAT-C2

Last updated on Mon Nov 03 2025 00:02:35 GMT+0000 (Coordinated Universal Time)

1 41773U 16058D 25306.11122577 .00011880 00000+0 34110-3 0 9993 2 41773 97.0422 332.3869 0004934 131.5553 228.6115 15.35975413510122
UTC large
Height (km)
Speed (km/s)
/
Latitude / Longitude
Inclination (degrees)
Orbital Period (minutes)
Azimuth
Elevation
Range (km)
Doppler Factor

Next 0 passes for location: London (51.5072 / 0.1276)

Sorry there are no passes over London.